Location: Navalespino
(40.5894°N, 4.2660°W)
Time: 02:38:09
(UTC+00:00)

SPOT 5 - Pass Details

Date: 18 April 2024
Orbit: 620 x 810 km, 98.1° (Epoch: 18 May)

Event Time Altitude Azimuth Distance (km) Brightness Sun altitude
Exits shadow 20:25:38 25° 114° (ESE) 1,596 4.0 -15.8°
Maximum altitude 20:27:55 36° 69° (ENE) 1,267 3.8 -16.1°
Drops below altitude 10° 20:32:40 10° 5° (N) 2,370 5.9 -16.9°
Sets 20:35:08 0° 357° (N) 3,283 6.8 -17.3°
